Location: Unspecified
(39.4830°S, 0.0000°E)
Time: 14:28:12
(UTC+00:00)

Tiangong 2 - Visible Passes

Search period start: 23 May 2019 00:00
Search period end: 02 June 2019 00:00
Orbit: 379 x 387 km, 42.8° (Epoch: 23 May)

Date Brightness Start Highest point End Pass type
(mag) Time Alt. Az. Time Alt. Az. Time Alt. Az.
23 May 3.5 06:26:48 10° NNW 06:29:31 25° NNE 06:32:16 10° E visible
24 May 4.1 05:27:50 10° N 05:29:41 14° NE 05:31:33 10° ENE visible
25 May 2.2 06:02:57 10° NW 06:06:02 43° NNE 06:09:09 10° E visible
26 May 3.1 05:05:44 24° NNE 05:06:07 25° NNE 05:08:50 10° E visible
27 May 1.2 05:41:16 32° NW 05:42:35 73° NNE 05:45:50 10° ESE visible
28 May 3.8 04:44:25 20° E 04:44:25 20° E 04:45:41 10° E visible
28 May 1.4 06:16:37 14° W 06:19:18 54° S 06:22:29 10° ESE visible
29 May 1.4 05:19:37 61° SE 05:19:37 61° SE 05:22:26 10° ESE visible
30 May 1.6 05:54:43 29° WSW 05:55:57 46° S 05:59:06 10° ESE visible
31 May 3.4 04:57:33 23° ESE 04:57:33 23° ESE 04:58:59 10° ESE visible
31 May 1.7 06:29:44 11° WSW 06:32:47 47° S 06:35:57 10° E visible
01 Jun 1.7 05:32:31 43° S 05:32:36 43° S 05:35:44 10° ESE visible
